Weather History for Wichita Falls, TX

Change the Weather History Date:

Monday, March 11, 2013

  Actual Average Record
Temperature  
Mean Temperature 45 °F 53 °F  
Max Temperature 63 °F 65 °F 95 °F (1967)
Min Temperature 27 °F 40 °F 6 °F (1948)
Degree Days  
Heating Degree Days 20 13  
Month to date heating degree days 150 156  
Since 1 July heating degree days 2366 2602  
Cooling Degree Days 0 0  
Month to date cooling degree days 0 0  
Year to date cooling degree days 5 3  
Moisture  
Dew Point 22 °F    
Average Humidity 45    
Maximum Humidity 69    
Minimum Humidity 20    
Precipitation  
Precipitation 0.00 in 0.07 in 2.14 in (1902)
Month to date precipitation 0.27 0.86  
Year to date precipitation 2.95 3.75  
Snow  
Snow 0.00 in 0.10 in - ()
Month to date snowfall 0.0 0.3  
Since 1 July snowfall 3.5 3.7  
Snow Depth -    
Sea Level Pressure  
Sea Level Pressure 30.06 in    
Wind  
Wind Speed 9 mph (West)    
Max Wind Speed 14 mph    
Max Gust Speed 20 mph    
Visibility 10 miles    
Events      
T = Trace of Precipitation, MM = Missing Value Source: NWS Daily Summary

Daily Weather History Graph

Daily Weather History Graph

Search for Another Location

Airport:

Trip Planner

Search our weather history database for the weather conditions in past years. The results will help you decide how hot, cold, wet, or windy it might be!

Date:

Astronomy

Mar. 11, 2013 Rise Set
Actual Time 7:49 AM CDT 7:38 PM CDT
Civil Twilight 7:24 AM CDT 8:03 PM CDT
Nautical Twilight 6:55 AM CDT 8:32 PM CDT
Astronomical Twilight 6:26 AM CDT 9:01 PM CDT
Moon 7:25 AM CDT (3/11) 7:49 PM CDT (3/11)
Length of Visible Light 12h 39m
Length of Day
11h 49m
Waning Crescent, 0% of the Moon is Illuminated
Mar 11
Waning Crescent
Mar 11
New
Mar 19
First Quarter
Mar 27
Full
Apr 2
Last Quarter

Hourly Weather History & Observations

Time (CDT) Temp. Windchill Dew Point Humidity Pressure Visibility Wind Dir Wind Speed Gust Speed Precip Events Conditions
12:52 AM 34.0 °F 25.5 °F 23.0 °F 64% 30.11 in 10.0 mi NW 11.5 mph - N/A   Clear
1:52 AM 33.1 °F 24.4 °F 21.9 °F 64% 30.11 in 10.0 mi WNW 11.5 mph - N/A   Clear
2:52 AM 32.0 °F 22.5 °F 21.0 °F 64% 30.11 in 10.0 mi WNW 12.7 mph - N/A   Clear
3:52 AM 30.9 °F 21.2 °F 19.9 °F 64% 30.10 in 10.0 mi WNW 12.7 mph - N/A   Clear
4:52 AM 30.2 °F 21.3 °F 19.4 °F 64% 30.08 in 10.0 mi WNW 10.4 mph - N/A   Clear
5:52 AM 28.0 °F 18.6 °F 19.0 °F 69% 30.11 in 10.0 mi WNW 10.4 mph - N/A   Clear
6:52 AM 28.0 °F 18.6 °F 18.0 °F 66% 30.12 in 10.0 mi WNW 10.4 mph - N/A   Clear
7:52 AM 27.0 °F 18.7 °F 18.0 °F 69% 30.12 in 10.0 mi WNW 8.1 mph - N/A   Clear
8:52 AM 30.0 °F 23.2 °F 18.0 °F 61% 30.12 in 10.0 mi NW 6.9 mph - N/A   Clear
9:52 AM 35.1 °F 28.6 °F 18.0 °F 50% 30.15 in 10.0 mi NW 8.1 mph - N/A   Clear
10:52 AM 41.0 °F 35.8 °F 16.0 °F 36% 30.14 in 10.0 mi NW 8.1 mph - N/A   Clear
11:52 AM 45.0 °F - 17.1 °F 33% 30.13 in 10.0 mi Calm Calm - N/A   Clear
12:52 PM 48.2 °F - 19.4 °F 32% 30.10 in 10.0 mi NW 5.8 mph - N/A   Clear
1:52 PM 52.0 °F - 21.9 °F 31% 30.08 in 10.0 mi Variable 6.9 mph - N/A   Clear
2:52 PM 55.0 °F - 21.9 °F 28% 30.04 in 10.0 mi WSW 9.2 mph - N/A   Clear
3:52 PM 59.0 °F - 23.0 °F 25% 30.01 in 9.0 mi West 12.7 mph 17.3 mph N/A   Clear
4:52 PM 60.1 °F - 23.0 °F 24% 29.99 in 10.0 mi SSW 6.9 mph - N/A   Clear
5:52 PM 62.1 °F - 23.0 °F 22% 29.97 in 10.0 mi SW 5.8 mph - N/A   Clear
6:52 PM 62.1 °F - 21.9 °F 21% 29.97 in 10.0 mi SW 3.5 mph - N/A   Clear
7:52 PM 54.0 °F - 28.9 °F 38% 29.97 in 10.0 mi ESE 10.4 mph - N/A   Clear
8:52 PM 48.2 °F - 30.2 °F 50% 29.97 in 10.0 mi ESE 10.4 mph - N/A   Clear
9:52 PM 46.0 °F 41.4 °F 30.0 °F 54% 29.98 in 10.0 mi ESE 9.2 mph - N/A   Clear
10:52 PM 46.0 °F 41.9 °F 28.9 °F 51% 29.99 in 10.0 mi SE 8.1 mph - N/A   Clear
11:52 PM 44.1 °F 39.0 °F 28.9 °F 55% 30.00 in 10.0 mi ESE 9.2 mph - N/A   Clear